[[{"header":{"parameterUnit":"m.s-1","parameterCategory":1,"la1":30.2992,"la2":30.254,"lo1":-89.0895,"lo2":-89.0443,"dy":0.0025,"dx":0.0025,"nx":19,"ny":19,"refTime":"2026-04-16T09:00:00:Z","depth":0,"parameterNumber":2,"parameterNumberName":"U-component_of_WINDS"},"data":[0,0,0,-0.7782,-0.7785,-0.7945,-0.7946,-0.813,-0.8132,0,0,0,0,0,0,0,0,0,0,0,-0.7721,-0.7721,-0.7782,-0.7786,-0.7945,-0.7946,-0.813,-0.8132,0,0,0,0,0,0,0,0,0,0,0,-0.772,-0.7721,-0.7722,-0.7786,-0.7945,-0.7946,-0.8129,-0.8017,0,0,0,0,0,0,0,0,0,0,-0.7865,-0.7794,-0.7721,-0.7722,-0.7787,-0.7945,-0.7946,-0.8012,-0.8024,-0.8049,0,-0.8065,0,-0.8101,-0.8142,-0.8143,0,0,0,-0.7797,-0.7784,-0.7839,-0.7722,-0.7788,-0.7944,-0.7876,-0.8019,-0.8032,-0.8064,-0.8068,-0.8075,-0.8104,-0.8143,-0.8144,-0.8247,-0.8247,0,0,-0.7788,-0.7742,-0.783,-0.7848,-0.7819,-0.7871,-0.7881,-0.8027,-0.8029,-0.8069,-0.808,-0.8107,-0.8145,-0.8146,-0.8247,-0.8247,0,0,0,-0.7755,-0.7736,-0.7788,-0.7839,-0.7869,-0.7875,-0.7887,-0.8022,-0.8043,-0.8082,-0.8109,-0.8145,-0.8147,-0.8248,-0.8247,-0.8201,0,0,0,-0.775,-0.7717,-0.7784,-0.7758,-0.7866,-0.7947,-0.7878,-0.8033,-0.8051,-0.8108,-0.8146,-0.8149,-0.8248,-0.8247,-0.8202,-0.8187,0,0,0,-0.7715,-0.7713,-0.7731,-0.7755,-0.7822,-0.7946,-0.7976,-0.8038,-0.8067,-0.8143,-0.8149,-0.8248,-0.8248,-0.8204,-0.8189,-0.8201,0,0,0,-0.7665,-0.7687,-0.7729,-0.7765,-0.782,-0.7915,-0.7975,-0.8049,-0.8109,-0.8146,-0.8248,-0.8247,-0.8204,-0.8191,-0.8202,-0.8203,-0.8199,0,0,-0.7668,-0.7686,-0.7711,-0.7753,-0.7829,-0.7895,-0.7966,-0.8064,-0.8114,-0.8201,-0.8204,-0.8202,-0.8189,-0.8201,-0.8191,-0.8187,0,0,0,-0.7696,-0.7713,-0.7744,-0.7798,-0.7873,-0.7937,-0.8029,-0.8066,-0.8142,-0.8148,-0.8211,-0.8205,-0.8214,-0.8216,-0.8213,-0.8224,-0.8246,-0.8246,-0.8247,-0.7635,-0.7697,-0.7742,-0.7823,-0.7875,-0.797,-0.8019,-0.8086,-0.8133,-0.8147,-0.8173,-0.8159,-0.816,-0.8158,-0.8169,-0.8178,-0.8178,-0.8178,-0.8178,-0.7645,-0.7679,-0.7742,-0.7808,-0.7874,-0.7932,-0.8025,-0.8057,-0.8122,-0.8144,-0.8155,-0.8174,-0.8152,-0.8165,-0.8175,-0.8176,-0.8176,-0.8176,-0.8176,-0.7612,-0.7639,-0.7683,-0.7768,-0.7828,-0.791,-0.7969,-0.8027,-0.8083,-0.8094,-0.8128,-0.8129,-0.8138,-0.8106,-0.8106,-0.8106,-0.8106,-0.8106,-0.8106,-0.756,-0.7611,-0.7652,-0.7734,-0.7777,-0.7842,-0.7939,-0.7984,-0.8049,-0.8087,-0.8087,-0.8134,-0.8138,-0.8138,-0.8105,-0.8105,-0.8106,-0.8106,-0.8106,-0.7548,-0.756,-0.7623,-0.7666,-0.7769,-0.7824,-0.7898,-0.7985,-0.8031,-0.8058,-0.8103,-0.8096,-0.8119,-0.8122,-0.8123,-0.8089,-0.8089,-0.8089,-0.8089,-0.752,-0.7537,-0.7616,-0.7681,-0.7752,-0.7825,-0.7898,-0.7974,-0.8055,-0.8088,-0.8102,-0.8107,-0.8107,-0.8131,-0.8134,-0.8135,-0.8105,-0.8105,-0.8105,-0.7516,-0.7543,-0.7592,-0.767,-0.7755,-0.7827,-0.7897,-0.7971,-0.8067,-0.8107,-0.8115,-0.8115,-0.8124,-0.8124,-0.8163,-0.8166,-0.817,0,0]},{"header":{"parameterUnit":"m.s-1","parameterCategory":1,"la1":30.2992,"la2":30.254,"lo1":-89.0895,"lo2":-89.0443,"dy":0.0025,"dx":0.0025,"nx":19,"ny":19,"refTime":"2026-04-16T09:00:00:Z","depth":0,"parameterNumber":3,"parameterNumberName":"V-component_of_WINDS"},"data":[0,0,0,5.0215,5.0216,5.0239,5.0239,5.0294,5.0295,0,0,0,0,0,0,0,0,0,0,0,5.0226,5.0227,5.0215,5.0216,5.0239,5.0239,5.0294,5.0295,0,0,0,0,0,0,0,0,0,0,0,5.0225,5.0226,5.0228,5.0216,5.0239,5.0239,5.0294,5.0267,0,0,0,0,0,0,0,0,0,0,5.024,5.0267,5.0226,5.0228,5.0217,5.0239,5.0239,5.0266,5.0269,5.0296,0,5.0325,0,5.0311,5.0301,5.0301,0,0,0,5.0203,5.0265,5.0255,5.0228,5.0217,5.0239,5.0225,5.0267,5.0271,5.03,5.0325,5.0327,5.0312,5.0301,5.0302,5.0498,5.05,0,0,5.0202,5.0239,5.0253,5.0259,5.0258,5.0225,5.0226,5.0269,5.0299,5.0325,5.0327,5.0313,5.0302,5.0302,5.0497,5.0499,0,0,0,5.0207,5.0239,5.0228,5.0257,5.0259,5.0226,5.0227,5.0297,5.029,5.0328,5.0314,5.0302,5.0303,5.0495,5.0497,5.0607,0,0,0,5.0206,5.0242,5.0228,5.0251,5.0259,5.0279,5.0255,5.0287,5.0291,5.0313,5.0302,5.0304,5.0493,5.0496,5.06,5.0652,0,0,0,5.0218,5.0243,5.0252,5.0253,5.0264,5.0277,5.0272,5.0287,5.0283,5.0301,5.0304,5.0492,5.0496,5.0594,5.0642,5.0713,0,0,0,5.0242,5.0351,5.0255,5.037,5.0264,5.0345,5.0272,5.0331,5.036,5.0303,5.0494,5.0497,5.0592,5.0636,5.0707,5.0778,5.0811,0,0,5.04,5.0371,5.0436,5.035,5.0458,5.0339,5.0462,5.0454,5.0423,5.0474,5.0479,5.0602,5.0642,5.0711,5.0989,5.1016,0,0,0,5.0498,5.0545,5.0565,5.0594,5.0591,5.059,5.0559,5.0556,5.0598,5.0457,5.0647,5.0669,5.0708,5.074,5.0763,5.0793,5.0514,5.0514,5.0513,5.0774,5.0726,5.0829,5.0784,5.0813,5.0778,5.0796,5.0785,5.0731,5.0776,5.0791,5.0965,5.1004,5.1021,5.1053,5.0826,5.0826,5.0826,5.0827,5.0998,5.1056,5.0978,5.1049,5.0998,5.1057,5.1027,5.0986,5.1032,5.0951,5.0983,5.0896,5.1052,5.1077,5.0835,5.0833,5.0832,5.0831,5.0831,5.1172,5.1191,5.1184,5.1219,5.1251,5.12,5.1248,5.12,5.1155,5.1187,5.1196,5.1194,5.1184,5.1195,5.1196,5.1196,5.1197,5.1197,5.1198,5.1355,5.1343,5.1389,5.1392,5.1402,5.141,5.1375,5.1383,5.1381,5.1342,5.1341,5.128,5.1077,5.1025,5.1207,5.1205,5.1204,5.1203,5.1202,5.1597,5.1534,5.1605,5.1616,5.1613,5.1646,5.1583,5.1605,5.1605,5.1629,5.1561,5.1419,5.1386,5.1367,5.1324,5.1572,5.1572,5.1572,5.1572,5.1743,5.1721,5.1781,5.18,5.1813,5.1763,5.1843,5.1815,5.1777,5.1774,5.1731,5.1671,5.1654,5.1631,5.1607,5.1566,5.1869,5.187,5.187,5.1888,5.1865,5.1943,5.1904,5.1897,5.1892,5.1965,5.1988,5.1933,5.1881,5.177,5.1757,5.1659,5.163,5.1575,5.1539,5.1462,0,0]}]]